Location: Rounton
(54.4000°N, 1.3500°W)
Time: 03:10:02
(UTC+01:00)

IRIDIUM 33 DEB - Pass Details

Date: 07 July 2022
Orbit: 708 x 709 km, 86.3° (Epoch: 10 August)

Event Time Altitude Azimuth Distance (km) Brightness Sun altitude
Rises 03:31:53 0° 357° (N) 3,120 ? -7.2°
Reaches altitude 10° 03:34:15 10° 3° (N) 2,197 ? -7.0°
Maximum altitude 03:39:01 52° 79° (E) 887 ? -6.7°
Drops below altitude 10° 03:43:46 10° 156° (SSE) 2,182 ? -6.3°
Sets 03:46:06 0° 162° (SSE) 3,097 ? -6.1°
